Dewpoint
4 4 4 5 5 4 6 5 8 6 4 2 2 1 -2 0 -3 -6 -6 -6 -5 -5 -4 -5 -8 -8 -8 -7 -6 -6 -3 -1 -0 -0 -0 -0 -0 0 0 0 -0 -1 -1 -2
7 3 2 4 3 3 4 3 3 3 4 0 -3 -5 -6 -8 -8 -8 -6 -5 -4 -3 -3 -3 -3 -3 -2 -3 -4 -3 -2 -1 -2 -2 -2 -2 -1 -1 -1 -1 -1 -0 -0 -1
6 2 3 5 4 2 2 1 2 4 2 -1 -3 -6 -6 -7 -6 -5 -3 -3 -3 -3 -3 -4 -4 -4 -4 -5 -5 -5 -4 -5 -5 -6 -5 -5 -5 -4 -4 -3 -3 -3 -3 -2
6 4 7 1 -1 -1 0 0 -0 0 0 -0 -4 -4 -4 -4 -3 -2 -2 -3 -3 -3 -4 -4 -5 -6 -6 -6 -7 -8 -10 -11 -12 -11 -11 -11 -10 -9 -8 -7 -6 -5 -4 -4
8 6 3 -0 -1 1 3 2 -2 -1 -3 -5 -5 -4 -2 -1 -2 -2 -3 -4 -4 -4 -4 -6 -9 -11 -11 -11 -12 -13 -12 -11 -11 -11 -11 -10 -10 -9 -8 -8 -7 -7 -7 -7
8 8 4 0 -3 -6 -2 4 -4 -3 -4 -8 -9 -3 -2 -1 -2 -3 -5 -5 -6 -6 -9 -12 -13 -13 -13 -14 -14 -13 -11 -11 -11 -11 -10 -10 -10 -9 -9 -9 -9 -8 -7 -7
7 8 6 0 -2 -2 7 6 -5 -6 -6 -6 -3 -1 -0 -2 -3 -4 -5 -6 -10 -13 -15 -15 -14 -13 -14 -13 -13 -12 -12 -12 -12 -12 -11 -12 -11 -11 -10 -10 -10 -9 -8 -7
6 9 6 -1 -2 5 3 -1 -3 -5 -2 -0 1 -0 -1 -3 -5 -6 -8 -12 -16 -18 -18 -16 -14 -13 -14 -12 -12 -13 -14 -14 -14 -13 -13 -13 -12 -11 -11 -11 -10 -10 -9 -9
4 4 2 -1 -0 1 1 1 -1 -2 -1 2 0 -1 -3 -4 -6 -8 -14 -18 -19 -19 -18 -17 -16 -14 -13 -12 -13 -15 -15 -16 -15 -14 -14 -12 -12 -12 -12 -11 -11 -11 -11 -10
4 2 3 3 3 2 1 0 -1 -1 -1 1 -1 -2 -4 -6 -9 -15 -18 -19 -18 -17 -16 -15 -14 -13 -13 -13 -14 -15 -15 -15 -15 -15 -14 -13 -13 -12 -12 -12 -12 -11 -11 -12
6 4 2 2 2 3 1 0 0 1 0 -2 -2 -4 -7 -10 -14 -17 -18 -18 -16 -15 -14 -14 -14 -14 -14 -14 -14 -15 -15 -15 -15 -14 -14 -13 -13 -13 -12 -12 -12 -12 -13 -11
5 0 2 2 3 2 1 1 0 -1 -4 -5 -6 -9 -14 -15 -16 -17 -17 -15 -15 -14 -14 -14 -14 -14 -15 -14 -14 -14 -14 -14 -14 -14 -13 -13 -13 -14 -13 -13 -13 -13 -13 -12
0 1 2 3 1 1 -0 -1 -2 -4 -7 -8 -12 -17 -18 -17 -16 -23 -15 -15 -14 -15 -15 -14 -13 -14 -14 -15 -14 -13 -13 -13 -14 -13 -13 -13 -13 -14 -14 -15 -13 -13 -13 -12
1 3 1 1 1 0 -0 -2 -5 -7 -9 -13 -19 -22 -22 -18 -21 -16 -14 -14 -14 -15 -14 -13 -13 -14 -14 -15 -14 -14 -14 -14 -13 -14 -14 -15 -14 -15 -15 -15 -15 -14 -14 -14
-0 2 1 1 -0 0 -1 -5 -8 -9 -12 -18 -21 -23 -18 -20 -16 -15 -14 -14 -15 -15 -14 -15 -16 -15 -15 -15 -15 -14 -14 -14 -14 -15 -15 -15 -15 -15 -15 -15 -15 -15 -14 -14
-0 1 0 0 -0 -2 -5 -7 -9 -12 -14 -19 -21 -19 -21 -21 -18 -14 -13 -18 -22 -19 -18 -21 -16 -16 -18 -22 -15 -15 -14 -14 -15 -15 -15 -15 -16 -16 -16 -16 -16 -16 -15 -14
0 -0 -0 -0 -1 -4 -6 -8 -11 -13 -18 -22 -19 -19 -19 -19 -16 -14 -16 -21 -21 -22 -21 -16 -20 -22 -27 -25 -18 -15 -15 -15 -15 -15 -15 -16 -16 -17 -17 -17 -17 -16 -16 -16
-2 -3 -1 -1 -1 -4 -7 -9 -12 -17 -24 -21 -18 -19 -21 -20 -19 -21 -22 -22 -22 -22 -21 -21 -22 -26 -28 -27 -25 -16 -16 -15 -16 -16 -16 -17 -17 -18 -18 -18 -18 -17 -17 -16
-2 -1 -1 -2 -2 -5 -7 -9 -13 -22 -23 -24 -25 -23 -21 -21 -21 -22 -22 -21 -22 -18 -15 -22 -25 -28 -24 -28 -26 -25 -16 -16 -16 -16 -17 -17 -18 -18 -18 -18 -19 -18 -18 -17
-1 -2 -3 -3 -4 -5 -7 -10 -19 -20 -20 -25 -23 -22 -21 -21 -22 -22 -21 -21 -20 -21 -21 -22 -27 -24 -27 -27 -27 -20 -16 -16 -17 -17 -17 -18 -18 -18 -19 -19 -19 -19 -19 -18
-3 -3 -3 -4 -6 -7 -9 -15 -24 -24 -26 -23 -23 -22 -22 -22 -22 -21 -21 -14 -13 -20 -21 -23 -25 -22 -28 -27 -26 -18 -17 -17 -17 -18 -18 -18 -19 -19 -19 -20 -20 -20 -20 -20
-4 -4 -4 -6 -8 -11 -18 -27 -26 -26 -24 -23 -22 -22 -22 -22 -21 -21 -20 -20 -19 -20 -21 -22 -24 -28 -28 -26 -25 -25 -22 -19 -18 -18 -18 -18 -19 -19 -20 -20 -20 -21 -21 -21
-5 -4 -6 -8 -12 -22 -27 -26 -26 -24 -24 -22 -22 -22 -22 -20 -21 -18 -14 -15 -20 -20 -21 -23 -29 -28 -28 -26 -26 -28 -28 -24 -19 -18 -19 -19 -19 -20 -20 -20 -21 -21 -21 -21
-4 -6 -8 -16 -24 -28 -26 -25 -23 -23 -21 -22 -22 -22 -21 -20 -19 -19 -19 -20 -20 -21 -21 -23 -28 -28 -28 -26 -26 -28 -30 -28 -22 -23 -18 -18 -19 -20 -20 -21 -21 -21 -22 -22
-5 -9 -17 -24 -24 -21 -24 -24 -22 -21 -21 -21 -22 -21 -21 -21 -20 -17 -19 -20 -20 -20 -21 -22 -27 -29 -28 -26 -26 -27 -30 -30 -29 -27 -23 -17 -18 -18 -19 -19 -20 -21 -22 -22
-10 -15 -21 -20 -19 -19 -19 -22 -16 -15 -18 -20 -20 -20 -21 -20 -20 -20 -20 -20 -20 -20 -21 -22 -25 -29 -28 -27 -26 -26 -29 -30 -30 -29 -27 -22 -16 -16 -17 -17 -18 -18 -19 -20
-16 -20 -16 -16 -17 -16 -22 -19 -14 -15 -22 -21 -18 -20 -20 -19 -20 -19 -20 -20 -20 -20 -21 -22 -23 -28 -28 -27 -26 -25 -27 -29 -30 -30 -30 -28 -23 -16 -15 -16 -16 -16 -17 -17
Wind_Speed
9 10 10 10 12 14 18 19 16 23 22 21 17 6 3 5 7 10 12 13 14 13 13 12 8 8 9 11 14 17 17 17 17 19 22 24 26 27 28 28 29 28 28 28
5 11 12 13 17 19 20 21 20 20 20 9 8 8 7 7 7 9 10 10 10 11 11 12 13 13 13 15 18 18 16 16 17 19 20 21 22 23 24 26 28 29 31 33
6 7 7 11 18 17 13 11 13 14 10 6 3 5 6 6 7 8 7 8 10 11 11 12 14 15 16 18 19 20 20 20 21 22 23 24 25 27 28 29 30 34 36 35
5 8 5 1 1 5 10 15 15 16 14 1 3 9 8 7 6 6 6 7 8 9 11 12 13 15 16 17 17 19 20 22 22 23 24 25 26 27 28 29 32 34 35 35
3 7 13 18 6 4 3 12 8 8 3 6 11 11 8 6 6 5 5 6 7 8 9 11 14 15 15 14 15 16 18 19 21 22 24 25 25 26 27 28 30 33 36 38
2 3 5 2 4 1 2 10 2 3 3 6 10 6 2 4 3 4 5 6 7 9 10 12 13 14 14 15 16 18 20 22 22 23 25 27 27 29 29 29 32 32 35 37
7 6 7 7 3 3 3 2 5 5 7 7 5 0 6 6 3 2 4 6 8 9 9 10 12 13 14 15 18 20 21 23 24 25 27 26 28 29 30 31 32 34 35 37
7 5 10 7 6 5 2 1 5 8 9 6 3 6 7 6 3 1 4 7 8 8 9 10 12 14 15 17 19 22 24 25 26 26 27 28 29 29 30 30 32 34 36 39
8 5 4 6 7 4 5 7 8 12 10 5 8 8 8 5 1 2 5 6 7 9 10 11 13 14 17 18 22 25 26 26 27 27 28 28 29 31 32 30 32 33 35 38
5 9 8 9 10 9 7 9 10 11 8 7 9 9 7 3 0 2 4 5 7 9 10 12 13 14 16 20 22 25 26 27 28 29 30 29 30 29 30 30 33 31 33 38
4 14 20 23 17 12 9 10 12 11 8 10 11 9 6 3 1 0 2 5 7 9 10 12 14 15 18 20 23 25 26 27 28 29 30 32 31 31 31 29 28 33 33 33
5 16 12 18 10 9 12 13 12 11 12 10 9 8 6 4 3 1 3 5 7 9 11 13 14 16 19 20 22 24 26 27 28 30 30 31 34 40 31 31 30 30 27 28
23 16 11 7 5 8 11 13 12 13 12 11 8 6 5 5 3 3 3 6 7 10 11 13 14 18 19 22 22 24 25 28 29 29 32 33 33 35 40 39 32 28 28 26
19 18 10 15 9 13 15 14 14 13 12 9 7 6 6 4 1 2 4 6 8 10 11 13 15 18 20 21 23 24 26 27 28 30 33 34 34 34 35 35 36 35 30 28
25 22 19 11 13 17 17 17 16 15 13 9 8 7 6 3 1 3 5 6 9 10 11 14 17 19 19 22 23 24 26 27 29 31 31 32 32 32 31 31 30 30 28 25
21 19 16 17 18 20 21 19 18 16 13 11 9 8 5 3 3 3 4 9 11 12 14 18 17 19 22 24 22 24 25 28 30 30 31 31 30 30 30 30 29 27 26 24
21 19 19 19 23 24 23 21 18 16 13 12 11 8 5 4 3 4 6 10 11 14 15 14 19 21 23 23 25 24 26 27 29 29 29 29 29 29 29 28 27 25 24 22
31 20 22 20 26 26 24 22 19 16 14 13 11 9 6 5 5 7 9 11 13 14 14 17 19 22 22 24 27 25 24 26 28 29 29 29 28 27 26 27 25 24 23 21
27 21 19 20 23 25 26 24 20 16 16 15 11 8 6 4 5 7 9 11 13 13 14 17 19 21 20 24 28 28 23 27 28 28 28 27 27 25 26 25 26 23 21 21
23 20 21 22 24 26 26 21 18 17 16 14 10 8 5 4 6 7 9 10 10 13 16 18 19 18 22 25 28 24 24 25 27 27 27 27 27 27 26 25 24 23 20 19
23 25 25 26 26 26 22 19 21 20 16 12 10 7 4 5 6 7 8 6 10 14 15 17 17 18 23 26 26 22 24 25 26 26 27 28 29 27 26 25 23 22 21 20
25 28 28 28 28 27 21 20 20 17 14 12 10 6 4 5 6 8 8 8 10 14 16 15 16 20 22 25 24 25 26 25 25 26 27 27 28 28 27 25 24 23 21 20
27 28 28 29 27 23 24 22 19 16 13 11 7 5 5 5 6 5 4 7 12 13 15 16 18 20 22 24 26 27 29 28 27 27 27 28 28 28 27 26 25 23 21 20
28 28 30 28 25 25 25 23 19 15 13 9 7 6 5 5 6 7 8 10 11 13 15 16 18 19 21 23 26 28 30 29 29 32 31 31 30 29 28 27 25 23 22 22
29 31 30 28 25 23 22 22 19 16 12 9 8 7 6 7 6 8 9 10 12 13 15 17 18 19 20 22 25 28 29 30 32 34 35 35 36 35 33 32 29 26 23 21
31 30 27 24 21 22 21 21 16 14 12 10 8 8 8 8 8 8 9 10 12 13 15 17 18 19 20 22 24 26 29 30 32 33 35 36 38 39 40 39 36 32 28 24
26 26 23 21 19 20 20 19 15 13 11 10 9 9 8 8 8 8 9 11 12 14 15 17 18 19 19 21 23 25 27 29 31 33 34 36 39 41 42 42 41 39 33 29
Wind_Direction
280 289 288 278 276 254 247 259 268 283 289 299 320 15 98 82 81 74 60 51 46 41 39 36 25 354 332 317 315 314 318 315 309 300 296 295 294 292 289 285 283 283 281 280
271 277 273 270 261 256 264 273 273 280 285 39 95 112 106 91 81 67 53 43 36 35 31 22 13 4 352 342 336 337 339 334 328 322 317 313 310 307 302 295 289 286 281 278
274 313 317 277 250 246 245 262 282 291 326 358 133 128 113 102 79 64 48 40 33 29 22 11 0 352 347 340 335 334 335 335 332 328 324 321 316 312 309 306 302 298 294 286
278 295 249 337 224 268 283 292 283 291 303 7 123 124 106 86 83 69 54 38 26 17 9 1 353 346 342 338 339 337 334 332 332 330 328 325 321 317 312 308 304 301 296 290
254 257 290 286 263 255 256 300 8 333 47 118 145 140 95 80 69 70 56 34 18 6 358 350 347 344 343 344 343 344 342 340 336 333 330 327 324 322 318 314 309 307 304 294
170 246 260 55 100 112 302 269 117 145 201 171 182 238 119 136 96 73 44 18 3 352 344 342 346 350 351 349 346 341 338 334 332 329 327 325 323 322 321 317 314 314 311 306
231 245 269 291 152 167 233 358 152 170 178 175 204 328 141 145 122 62 19 359 354 346 348 349 351 351 348 343 341 338 335 332 330 328 325 322 319 319 318 316 315 309 311 316
217 226 256 140 149 214 49 132 185 172 154 147 164 160 151 154 140 34 353 349 354 356 353 350 350 345 344 340 338 336 334 331 327 324 323 320 318 318 317 315 313 316 313 315
210 218 103 194 254 256 275 277 203 185 188 236 192 177 171 168 150 337 349 355 357 353 347 343 344 345 341 337 337 334 333 328 326 323 323 319 320 319 318 318 317 316 320 324
240 242 268 270 259 256 252 227 219 210 224 204 180 175 175 172 213 347 353 354 347 343 341 341 342 343 342 337 335 334 329 327 326 325 322 321 318 317 316 316 316 314 314 322
258 278 282 275 269 263 224 215 221 220 189 176 171 174 180 181 189 51 354 349 340 338 337 336 339 342 339 336 333 330 328 326 324 322 324 320 317 316 316 313 313 314 312 315
242 266 281 282 296 222 204 214 210 177 162 164 170 174 173 171 162 99 349 333 335 336 332 335 339 337 335 333 331 329 325 324 324 324 324 321 320 318 317 316 317 317 314 309
255 269 253 251 227 209 197 197 180 174 176 179 182 180 167 163 164 302 333 331 330 329 334 336 333 333 332 331 328 325 322 324 323 324 322 320 320 318 319 321 320 321 323 320
243 233 240 244 230 204 204 182 180 178 180 183 189 180 174 164 240 318 318 320 322 331 336 333 331 330 330 327 325 325 324 323 323 319 320 320 318 319 317 318 318 321 324 326
241 233 258 231 199 199 195 182 179 180 185 185 186 180 178 182 237 297 308 314 327 332 334 333 327 328 327 328 329 326 326 324 321 320 320 319 320 318 318 318 316 316 321 326
233 222 209 194 194 190 186 186 184 182 184 190 186 182 194 215 263 288 304 318 327 329 330 328 328 327 327 331 330 329 327 324 322 323 324 321 321 320 319 319 318 316 320 324
195 193 192 190 189 190 193 190 187 189 189 188 185 185 192 226 266 285 308 321 323 328 326 324 326 332 336 340 336 330 328 327 326 327 323 322 321 319 320 321 319 319 316 312
232 242 220 216 192 189 186 185 186 190 188 183 182 189 212 233 253 290 311 318 322 325 327 331 333 338 341 342 339 332 330 329 328 327 325 324 321 321 319 320 318 316 316 315
218 213 201 188 188 188 183 183 185 184 181 186 193 202 222 253 285 302 313 316 322 334 320 330 339 341 340 341 344 338 334 329 329 329 327 325 325 324 320 319 318 315 312 312
196 194 185 181 181 182 177 181 182 178 178 190 192 208 229 270 294 307 313 317 319 326 333 338 339 339 338 342 343 343 333 331 331 330 330 331 328 324 323 319 317 315 310 310
179 180 179 177 173 175 180 183 182 180 185 183 198 204 234 278 295 308 317 326 304 326 334 338 339 336 340 343 344 337 338 336 335 334 335 333 330 327 324 320 317 315 310 305
176 175 176 176 176 175 177 179 178 180 182 192 194 201 238 270 290 305 313 320 319 330 337 338 334 337 340 343 347 345 344 342 341 339 336 335 332 329 326 322 318 314 309 306
174 178 178 178 177 172 171 177 178 181 189 191 193 213 242 253 280 293 299 302 321 325 335 333 334 337 341 345 348 350 349 348 346 342 340 337 335 333 329 324 318 314 310 305
174 174 173 170 171 172 173 175 180 186 191 191 205 229 251 266 283 295 303 314 325 331 332 334 336 338 340 347 350 351 352 351 349 349 349 345 345 340 335 330 322 316 310 307
174 170 169 171 169 167 174 178 183 191 189 196 220 238 252 262 269 281 304 317 325 330 332 333 336 338 343 347 350 351 354 354 354 354 352 354 353 349 345 342 337 327 317 310
170 172 173 171 168 169 173 179 182 184 185 200 217 238 255 264 279 297 310 319 325 328 332 333 337 339 343 347 349 352 354 355 355 356 357 357 358 358 356 355 351 345 337 324
168 169 162 162 168 172 179 183 181 185 197 210 219 243 254 262 277 296 307 316 324 327 331 334 337 339 341 344 348 351 354 354 355 356 359 360 1 2 2 3 359 355 350 346
Height
1526 1526 1526 1528 1527 1523 1522 1518 1524 1509 1505 1498 1497 1507 1513 1514 1515 1516 1516 1515 1515 1514 1512 1511 1509 1510 1508 1507 1504 1501 1498 1496 1495 1493 1490 1487 1483 1480 1477 1473 1469 1465 1461 1458
1544 1525 1523 1525 1519 1516 1515 1512 1508 1503 1500 1500 1507 1512 1515 1516 1517 1517 1518 1517 1517 1515 1513 1511 1509 1508 1506 1503 1500 1497 1495 1493 1490 1486 1483 1480 1475 1471 1468 1464 1460 1457 1453 1449
1527 1519 1521 1524 1508 1507 1505 1503 1503 1504 1497 1505 1509 1513 1515 1517 1518 1518 1518 1518 1516 1514 1512 1510 1508 1506 1504 1501 1498 1494 1491 1489 1485 1482 1477 1473 1469 1464 1460 1455 1450 1446 1440 1437
1527 1522 1530 1501 1501 1500 1502 1502 1499 1497 1494 1500 1508 1516 1517 1517 1518 1518 1518 1517 1516 1514 1513 1511 1508 1505 1503 1500 1496 1493 1489 1485 1481 1476 1472 1467 1462 1458 1453 1448 1443 1437 1431 1427
1527 1515 1505 1499 1494 1501 1502 1501 1505 1506 1507 1508 1514 1516 1517 1517 1516 1517 1517 1516 1515 1514 1512 1510 1507 1504 1501 1498 1494 1491 1486 1482 1478 1473 1468 1463 1457 1452 1447 1441 1435 1429 1423 1416
1532 1530 1517 1494 1503 1505 1504 1499 1506 1509 1508 1509 1511 1509 1507 1515 1515 1516 1516 1515 1514 1512 1511 1509 1505 1502 1499 1496 1493 1489 1484 1479 1474 1469 1464 1458 1452 1446 1440 1435 1428 1422 1414 1408
1529 1525 1508 1495 1503 1506 1511 1501 1505 1507 1509 1509 1509 1511 1511 1511 1514 1514 1514 1513 1511 1510 1508 1506 1503 1500 1497 1494 1490 1486 1481 1476 1471 1465 1459 1454 1447 1441 1434 1428 1422 1415 1407 1399
1519 1520 1514 1499 1503 1505 1502 1503 1505 1507 1507 1509 1510 1509 1510 1512 1513 1513 1512 1511 1510 1508 1507 1504 1501 1498 1495 1491 1486 1482 1476 1472 1467 1462 1455 1449 1442 1436 1429 1423 1415 1408 1399 1390
1501 1495 1496 1498 1497 1499 1500 1501 1503 1504 1505 1505 1507 1510 1511 1511 1511 1511 1510 1509 1508 1507 1504 1502 1499 1495 1492 1488 1482 1477 1473 1468 1463 1457 1451 1445 1438 1430 1423 1417 1409 1401 1393 1384
1496 1489 1492 1495 1496 1496 1497 1497 1498 1500 1501 1504 1506 1508 1509 1509 1509 1508 1508 1507 1506 1504 1502 1500 1496 1492 1489 1484 1480 1474 1470 1464 1459 1452 1445 1439 1433 1427 1419 1412 1404 1397 1389 1380
1496 1492 1491 1489 1491 1493 1494 1495 1496 1497 1499 1502 1503 1505 1506 1506 1506 1506 1506 1505 1504 1502 1500 1497 1493 1489 1485 1481 1477 1472 1467 1461 1455 1448 1441 1433 1427 1421 1413 1407 1401 1392 1384 1379
1486 1485 1486 1486 1488 1488 1489 1492 1493 1495 1497 1499 1501 1502 1503 1503 1503 1503 1503 1502 1501 1500 1497 1494 1490 1487 1483 1479 1474 1469 1463 1457 1451 1443 1436 1429 1420 1409 1408 1400 1394 1388 1382 1375
1480 1481 1481 1484 1485 1485 1488 1490 1492 1493 1494 1495 1497 1499 1500 1501 1500 1500 1501 1500 1499 1497 1493 1490 1487 1483 1480 1475 1471 1466 1460 1453 1446 1440 1433 1425 1416 1408 1396 1388 1387 1382 1376 1369
1477 1476 1478 1478 1480 1482 1484 1487 1489 1489 1491 1493 1495 1496 1497 1498 1497 1498 1499 1498 1496 1493 1490 1487 1484 1481 1476 1472 1467 1461 1456 1450 1444 1437 1428 1420 1413 1405 1397 1388 1379 1373 1370 1364
1469 1469 1472 1472 1474 1477 1481 1484 1485 1486 1488 1490 1493 1493 1495 1495 1496 1497 1496 1494 1492 1490 1487 1484 1481 1478 1474 1468 1463 1458 1452 1447 1440 1432 1424 1417 1409 1401 1394 1386 1379 1372 1366 1361
1460 1464 1466 1466 1468 1472 1476 1479 1482 1484 1485 1488 1490 1491 1492 1493 1494 1494 1493 1491 1489 1487 1484 1481 1478 1474 1469 1464 1459 1454 1448 1442 1435 1428 1420 1413 1405 1397 1390 1383 1376 1371 1365 1360
1452 1456 1459 1461 1463 1467 1469 1474 1477 1480 1481 1485 1487 1489 1490 1491 1492 1491 1490 1487 1485 1483 1481 1478 1474 1470 1465 1460 1455 1450 1444 1437 1431 1424 1416 1409 1401 1394 1387 1380 1374 1368 1363 1359
1442 1447 1450 1451 1455 1460 1465 1469 1473 1475 1479 1483 1485 1486 1487 1489 1489 1488 1486 1485 1483 1480 1478 1475 1471 1467 1462 1457 1451 1446 1440 1434 1427 1420 1412 1404 1397 1390 1384 1377 1371 1366 1360 1356
1436 1441 1443 1446 1449 1454 1460 1464 1469 1473 1476 1479 1481 1483 1485 1485 1485 1485 1484 1482 1480 1477 1476 1472 1468 1463 1459 1454 1448 1441 1438 1431 1423 1416 1408 1400 1393 1386 1380 1374 1368 1363 1358 1354
1431 1435 1437 1441 1446 1451 1455 1461 1466 1471 1474 1477 1479 1481 1482 1482 1482 1482 1481 1479 1477 1475 1471 1468 1464 1461 1457 1451 1445 1439 1435 1427 1420 1412 1404 1396 1389 1382 1376 1370 1364 1359 1354 1351
1426 1428 1432 1437 1443 1449 1454 1457 1463 1467 1471 1474 1477 1478 1479 1479 1479 1479 1478 1478 1475 1471 1469 1465 1462 1459 1454 1448 1442 1437 1431 1424 1417 1408 1400 1392 1385 1378 1372 1366 1360 1355 1350 1347
1421 1425 1430 1436 1441 1447 1451 1457 1462 1466 1469 1472 1474 1475 1476 1477 1477 1476 1475 1474 1471 1468 1465 1462 1459 1455 1450 1445 1439 1433 1427 1420 1414 1406 1398 1390 1382 1374 1368 1361 1356 1351 1346 1342
1420 1424 1430 1436 1441 1444 1451 1456 1460 1465 1468 1470 1471 1473 1474 1474 1474 1474 1474 1471 1468 1465 1462 1460 1456 1452 1447 1442 1437 1431 1424 1417 1410 1404 1396 1388 1380 1372 1364 1357 1351 1346 1341 1337
1418 1424 1430 1436 1440 1444 1449 1454 1459 1463 1466 1467 1469 1471 1471 1471 1471 1470 1469 1467 1465 1462 1460 1456 1452 1449 1444 1439 1434 1428 1422 1415 1409 1401 1393 1386 1377 1369 1362 1354 1346 1341 1335 1330
1418 1423 1429 1433 1439 1443 1448 1453 1457 1461 1463 1464 1466 1467 1468 1468 1468 1467 1465 1463 1461 1459 1456 1453 1450 1446 1441 1437 1432 1426 1420 1413 1407 1399 1392 1384 1375 1367 1359 1350 1342 1335 1329 1324
1418 1422 1428 1434 1437 1442 1446 1451 1456 1458 1460 1462 1464 1464 1465 1464 1464 1463 1461 1460 1458 1456 1453 1450 1446 1443 1438 1434 1429 1424 1417 1411 1405 1398 1391 1383 1375 1366 1357 1348 1339 1331 1325 1319
1419 1423 1429 1433 1437 1441 1445 1450 1453 1455 1457 1459 1461 1461 1461 1461 1460 1459 1458 1457 1454 1452 1449 1446 1443 1439 1435 1431 1426 1421 1416 1410 1404 1397 1390 1383 1375 1366 1357 1348 1339 1331 1323 1316